Location: Newark
(52.5694°N, 1.3190°W)
Time: 19:08:34
(UTC+00:00)

N. Korean satellite - Pass Details

Date: 29 January 2020
Orbit: 456 x 505 km, 97.2° (Epoch: 19 February)

Event Time Altitude Azimuth Distance (km) Brightness Sun altitude
Rises 07:05:49 0° 3° (N) 2,546 10.0 -7.3°
Reaches altitude 10° 07:08:09 10° 348° (NNW) 1,671 9.0 -7.0°
Maximum altitude 07:11:00 22° 296° (WNW) 1,098 7.8 -6.6°
Drops below altitude 10° 07:13:52 10° 243° (WSW) 1,683 8.9 -6.2°
Sets 07:16:14 0° 229° (SW) 2,569 10.0 -5.8°
